Torna al catalogo

OPS 4682 DEB

AttivoPO
NORAD 38417·DEBRIS·🇺🇸 United States

Lanciato Apr 3, 1965 da Vandenberg Space Force Base

Loading…

Prossimi Passaggi (prossime 24 ore)

TLE

AggiornatoSource: Space-Track

Epoca: Sep 13, 2026, 02:06 UTC

1 38417U 65027DW  26256.08791475  .00000527  00000-0  18074-2 0  9991
2 38417  90.2554  14.2975 0030902 270.1413  89.6166 12.96705041618073

Traccia OPS 4682 DEB in tempo reale con AllMySat

Download on the App Store